User: anonymous   Login
Location: *
(33.8649°S, 62.1526°E)
Time: 14:00:32
(UTC+00:00)
Language:

Milstar 3 Cent rocket - Orbit

View from above orbital plane
View from above orbital plane
View from above satellite
View from above satellite

Ground track
Ground track

The orbit data is extracted from the following two-line orbital elements,

1 25725U 99023B   21104.33742229 -.00000013  00000-0 -15478-3 0  9998
2 25725  28.3365  49.9218 2386948 258.3921  74.1268  9.67249247 73966
Epoch (UTC): 14 April 2021 08:05:53
Eccentricity: 0.2386948
inclination: 28.3365°
perigee height: 705 km
apogee height: 5148 km
right ascension of ascending node: 49.9218°
argument of perigee: 258.3921°
revolutions per day: 9.67249247
mean anomaly at epoch: 74.1268°
orbit number at epoch: 7396

The dashed part of the orbit path shows where the satellite is in the earth's shadow,  

DLR